[[{"header":{"parameterUnit":"m.s-1","parameterCategory":1,"la1":30.2992,"la2":30.254,"lo1":-89.0895,"lo2":-89.0443,"dy":0.0025,"dx":0.0025,"nx":19,"ny":19,"refTime":"2026-05-15T03:00:00:Z","depth":0,"parameterNumber":2,"parameterNumberName":"U-component_of_WINDS"},"data":[0,0,0,-2.0392,-2.0392,-2.0391,-2.0391,-2.0404,-2.0404,0,0,0,0,0,0,0,0,0,0,0,-2.0401,-2.0401,-2.0392,-2.0392,-2.0391,-2.0391,-2.0404,-2.0404,0,0,0,0,0,0,0,0,0,0,0,-2.0401,-2.0401,-2.0402,-2.0392,-2.0391,-2.0391,-2.0404,-2.04,0,0,0,0,0,0,0,0,0,0,-2.0398,-2.0415,-2.0401,-2.0402,-2.0392,-2.0391,-2.0391,-2.0399,-2.04,-2.0411,0,-2.0422,0,-2.0413,-2.0406,-2.0406,0,0,0,-2.0386,-2.0415,-2.0406,-2.0402,-2.0393,-2.0391,-2.039,-2.0399,-2.04,-2.0412,-2.0422,-2.0422,-2.0414,-2.0406,-2.0406,-2.0488,-2.0489,0,0,-2.0386,-2.0406,-2.0406,-2.0407,-2.0408,-2.039,-2.039,-2.04,-2.0413,-2.0422,-2.0422,-2.0414,-2.0406,-2.0406,-2.0487,-2.0488,0,0,0,-2.0391,-2.0406,-2.0397,-2.0407,-2.0406,-2.039,-2.039,-2.0412,-2.0408,-2.0422,-2.0414,-2.0406,-2.0407,-2.0486,-2.0488,-2.054,0,0,0,-2.039,-2.0408,-2.0398,-2.041,-2.0406,-2.0409,-2.0403,-2.0407,-2.0408,-2.0414,-2.0406,-2.0407,-2.0486,-2.0487,-2.0537,-2.0562,0,0,0,-2.0398,-2.0409,-2.0412,-2.0411,-2.0411,-2.0408,-2.0404,-2.0407,-2.0403,-2.0406,-2.0407,-2.0485,-2.0487,-2.0534,-2.0557,-2.0588,0,0,0,-2.0413,-2.0459,-2.0413,-2.0462,-2.0411,-2.0441,-2.0404,-2.0425,-2.0434,-2.0407,-2.0486,-2.0487,-2.0533,-2.0554,-2.0586,-2.0619,-2.0634,0,0,-2.0482,-2.0468,-2.0495,-2.0454,-2.0497,-2.0439,-2.049,-2.048,-2.0462,-2.048,-2.0482,-2.0538,-2.0557,-2.0588,-2.0714,-2.0727,0,0,0,-2.0524,-2.0544,-2.0551,-2.056,-2.0553,-2.0549,-2.0529,-2.0525,-2.0539,-2.0476,-2.0557,-2.0568,-2.0585,-2.06,-2.0611,-2.0624,-2.0495,-2.0495,-2.0495,-2.0651,-2.0626,-2.0669,-2.0643,-2.0653,-2.0631,-2.0636,-2.0627,-2.0599,-2.0619,-2.0624,-2.0704,-2.0722,-2.073,-2.0745,-2.064,-2.064,-2.064,-2.064,-2.0751,-2.0775,-2.0736,-2.0764,-2.0736,-2.0759,-2.074,-2.0719,-2.0737,-2.0698,-2.0712,-2.0673,-2.0745,-2.0756,-2.0644,-2.0643,-2.0643,-2.0642,-2.0642,-2.0832,-2.0839,-2.0833,-2.0843,-2.0854,-2.0826,-2.0844,-2.0819,-2.0795,-2.0809,-2.0812,-2.0811,-2.0806,-2.0812,-2.0812,-2.0812,-2.0813,-2.0813,-2.0813,-2.0918,-2.091,-2.0928,-2.0924,-2.0926,-2.0926,-2.0904,-2.0905,-2.09,-2.088,-2.088,-2.085,-2.0756,-2.0733,-2.0817,-2.0816,-2.0816,-2.0816,-2.0815,-2.103,-2.1,-2.1029,-2.1031,-2.1023,-2.1035,-2.1002,-2.1007,-2.1004,-2.1014,-2.0981,-2.0915,-2.0899,-2.0891,-2.0871,-2.0986,-2.0986,-2.0986,-2.0986,-2.1098,-2.1087,-2.111,-2.1115,-2.1117,-2.1089,-2.1122,-2.1105,-2.1083,-2.108,-2.1059,-2.1032,-2.1024,-2.1012,-2.1001,-2.0983,-2.1123,-2.1123,-2.1123,-2.1165,-2.1153,-2.1186,-2.1164,-2.1156,-2.1149,-2.1179,-2.1186,-2.1155,-2.1128,-2.1077,-2.1071,-2.1026,-2.1012,-2.0986,-2.0969,-2.0935,0,0]},{"header":{"parameterUnit":"m.s-1","parameterCategory":1,"la1":30.2992,"la2":30.254,"lo1":-89.0895,"lo2":-89.0443,"dy":0.0025,"dx":0.0025,"nx":19,"ny":19,"refTime":"2026-05-15T03:00:00:Z","depth":0,"parameterNumber":3,"parameterNumberName":"V-component_of_WINDS"},"data":[0,0,0,4.0769,4.0771,4.0856,4.0856,4.0973,4.0974,0,0,0,0,0,0,0,0,0,0,0,4.0752,4.0753,4.0769,4.0771,4.0856,4.0856,4.0973,4.0974,0,0,0,0,0,0,0,0,0,0,0,4.0751,4.0752,4.0754,4.0772,4.0856,4.0856,4.0972,4.0905,0,0,0,0,0,0,0,0,0,0,4.0821,4.0813,4.0752,4.0754,4.0772,4.0856,4.0856,4.0902,4.0909,4.0939,0,4.0969,0,4.0974,4.0983,4.0983,0,0,0,4.0765,4.0807,4.0823,4.0754,4.0773,4.0856,4.0816,4.0906,4.0914,4.0949,4.0971,4.0975,4.0976,4.0983,4.0984,4.1179,4.118,0,0,4.0761,4.0771,4.0817,4.0829,4.0819,4.0813,4.0819,4.0911,4.0935,4.0971,4.0978,4.0978,4.0984,4.0985,4.1178,4.1179,0,0,0,4.0751,4.0768,4.0781,4.0824,4.0839,4.0816,4.0822,4.093,4.0934,4.0979,4.0979,4.0985,4.0987,4.1177,4.1178,4.1247,0,0,0,4.0748,4.0762,4.0779,4.0786,4.0838,4.0886,4.084,4.0928,4.0938,4.0978,4.0985,4.0988,4.1175,4.1178,4.1242,4.1277,0,0,0,4.0743,4.0761,4.0777,4.0787,4.0824,4.0885,4.0893,4.093,4.0938,4.0983,4.0988,4.1174,4.1177,4.1238,4.127,4.1329,0,0,0,4.0741,4.0837,4.0778,4.0885,4.0823,4.0927,4.0893,4.097,4.1016,4.0986,4.1175,4.1178,4.1236,4.1266,4.1325,4.138,4.1405,0,0,4.0867,4.0853,4.0914,4.0864,4.0981,4.0914,4.104,4.1073,4.1067,4.1141,4.1146,4.1243,4.1269,4.1328,4.1542,4.1561,0,0,0,4.0958,4.1002,4.1031,4.1076,4.1104,4.113,4.1142,4.1154,4.1216,4.1108,4.1282,4.1297,4.1331,4.1357,4.1373,4.1401,4.1191,4.1191,4.1191,4.115,4.1138,4.1239,4.1236,4.128,4.1292,4.1325,4.1342,4.1318,4.1359,4.138,4.1511,4.1542,4.1554,4.1583,4.141,4.141,4.141,4.1411,4.1332,4.1392,4.1356,4.1441,4.1426,4.1496,4.1509,4.1489,4.155,4.1495,4.1524,4.1463,4.1576,4.1601,4.1416,4.1415,4.1414,4.1414,4.1413,4.1456,4.1482,4.1495,4.1558,4.1607,4.16,4.166,4.1645,4.1632,4.1661,4.168,4.1679,4.1674,4.1671,4.1672,4.1672,4.1673,4.1673,4.1673,4.1578,4.1591,4.1644,4.168,4.1706,4.1737,4.1748,4.1772,4.1794,4.1778,4.1778,4.1748,4.1591,4.155,4.168,4.1679,4.1678,4.1678,4.1677,4.1765,4.172,4.1802,4.1828,4.1867,4.1915,4.1895,4.1945,4.1963,4.1992,4.1955,4.1842,4.1825,4.1812,4.1778,4.1959,4.1959,4.1959,4.1959,4.1868,4.1858,4.1937,4.1978,4.2017,4.2007,4.2097,4.2105,4.2106,4.2115,4.2087,4.2042,4.2029,4.2019,4.2002,4.197,4.2196,4.2196,4.2196,4.198,4.1973,4.2054,4.2055,4.2084,4.2108,4.2192,4.2238,4.223,4.2205,4.2122,4.2112,4.2038,4.2016,4.1988,4.196,4.1901,0,0]}]]